TimeEDT,TemperatureF,Dew PointF,Humidity,Sea Level PressureIn,VisibilityMPH,Wind Direction,Wind SpeedMPH,Gust SpeedMPH,PrecipitationIn,Events,Conditions,WindDirDegrees,DateUTC
12:51 AM,66.9,61.0,81,29.94,10.0,Calm,Calm,-,N/A,,Clear,0,2012-10-03 04:51:00
1:51 AM,62.1,59.0,90,29.97,10.0,Calm,Calm,-,N/A,,Clear,0,2012-10-03 05:51:00
2:51 AM,63.0,61.0,93,29.99,10.0,Calm,Calm,-,N/A,,Overcast,0,2012-10-03 06:51:00
3:51 AM,64.0,61.0,90,30.01,10.0,Calm,Calm,-,N/A,,Overcast,0,2012-10-03 07:51:00
4:51 AM,63.0,61.0,93,30.03,10.0,Calm,Calm,-,N/A,,Mostly Cloudy,0,2012-10-03 08:51:00
5:51 AM,63.0,61.0,93,30.05,10.0,Calm,Calm,-,N/A,,Overcast,0,2012-10-03 09:51:00
6:51 AM,63.0,60.1,90,30.07,10.0,Calm,Calm,-,N/A,,Overcast,0,2012-10-03 10:51:00
7:05 AM,62.6,60.8,94,30.09,10.0,Calm,Calm,-,N/A,,Mostly Cloudy,0,2012-10-03 11:05:00
7:36 AM,62.6,60.8,94,30.10,10.0,Calm,Calm,-,N/A,,Mostly Cloudy,0,2012-10-03 11:36:00
7:51 AM,62.1,60.1,93,30.10,10.0,Calm,Calm,-,N/A,,Overcast,0,2012-10-03 11:51:00
8:27 AM,64.4,60.8,88,30.12,10.0,Calm,Calm,-,N/A,,Scattered Clouds,0,2012-10-03 12:27:00
8:51 AM,64.9,61.0,87,30.11,10.0,Calm,Calm,-,N/A,,Clear,0,2012-10-03 12:51:00
9:50 AM,59.0,55.4,88,29.99,5.0,South,4.6,-,N/A,,Overcast,190,2012-10-03 13:50:00
9:51 AM,66.0,61.0,84,30.13,10.0,Calm,Calm,-,N/A,,Partly Cloudy,0,2012-10-03 13:51:00
10:51 AM,69.1,61.0,75,30.13,10.0,Calm,Calm,-,N/A,,Clear,0,2012-10-03 14:51:00
11:51 AM,70.0,59.0,68,30.13,10.0,South,4.6,-,N/A,,Partly Cloudy,190,2012-10-03 15:51:00
12:51 PM,73.0,57.9,59,30.12,10.0,Calm,Calm,-,N/A,,Mostly Cloudy,0,2012-10-03 16:51:00
1:51 PM,73.0,60.1,64,30.12,10.0,North,4.6,-,0.01,,Scattered Clouds,360,2012-10-03 17:51:00
2:51 PM,73.0,61.0,66,30.11,10.0,NW,5.8,-,N/A,,Mostly Cloudy,310,2012-10-03 18:51:00
3:51 PM,73.9,60.1,62,30.10,10.0,Variable,3.5,-,N/A,,Clear,0,2012-10-03 19:51:00
4:51 PM,73.0,60.1,64,30.11,10.0,NNW,4.6,-,N/A,,Clear,330,2012-10-03 20:51:00
5:51 PM,71.1,60.1,68,30.13,10.0,NNW,4.6,-,N/A,,Clear,340,2012-10-03 21:51:00
6:51 PM,68.0,60.1,76,30.14,10.0,Calm,Calm,-,N/A,,Clear,0,2012-10-03 22:51:00
7:51 PM,64.0,60.1,87,30.16,10.0,Calm,Calm,-,N/A,,Clear,0,2012-10-03 23:51:00
8:51 PM,64.0,61.0,90,30.16,10.0,Calm,Calm,-,N/A,,Clear,0,2012-10-04 00:51:00
9:51 PM,62.1,60.1,93,30.18,9.0,Calm,Calm,-,N/A,,Clear,0,2012-10-04 01:51:00
10:51 PM,62.6,60.8,94,30.19,9.0,Calm,Calm,-,N/A,,Clear,0,2012-10-04 02:51:00
11:51 PM,62.1,60.1,93,30.18,10.0,Calm,Calm,-,N/A,,Clear,0,2012-10-04 03:51:00